Location: Albany
(35.0170°S, 117.8920°E)
Time: 21:50:13
(UTC+08:00)

Courier 1B Rocket - All Passes

Search period start: 25 January 2021 00:00
Search period end: 04 February 2021 00:00
Orbit: 920 x 1202 km, 28.2° (Epoch: 24 January)

Date Brightness Start Highest point End Pass type
(mag) Time Alt. Az. Time Alt. Az. Time Alt. Az.
25 Jan - 17:09:10 10° NNW 17:15:19 27° NNE 17:21:12 10° ENE daylight
25 Jan - 19:01:30 10° WNW 19:08:27 45° N 19:14:56 10° ENE daylight
25 Jan - 20:54:56 10° WNW 21:01:38 47° N 21:07:54 10° ENE visible
25 Jan - 22:48:56 10° WNW 22:54:32 28° NNW 22:59:54 10° NE visible
26 Jan - 16:08:49 10° NNW 16:14:19 21° NNE 16:19:38 10° ENE daylight
26 Jan - 18:00:26 10° NW 18:07:24 41° NNE 18:13:55 10° E daylight
26 Jan - 19:53:39 10° WNW 20:00:37 50° N 20:07:07 10° ENE visible
26 Jan - 21:47:28 10° W 21:53:42 36° NNW 21:59:33 10° NE visible
26 Jan - 23:42:42 10° WNW 23:46:20 15° NNW 23:49:53 10° N visible
27 Jan - 15:09:01 10° N 15:13:18 16° NNE 15:17:31 10° ENE daylight
27 Jan - 16:59:30 10° NW 17:06:19 35° NNE 17:12:48 10° E daylight
27 Jan - 18:52:24 10° WNW 18:59:34 50° N 19:06:15 10° ENE daylight
27 Jan - 20:46:04 10° W 20:52:46 43° NNW 20:59:01 10° ENE visible
27 Jan - 22:40:33 10° WNW 22:45:34 22° NNW 22:50:23 10° NNE visible
28 Jan - 14:11:05 10° NNE 14:12:20 10° NNE 14:13:35 10° NE daylight
28 Jan - 15:58:48 10° NW 16:05:15 29° NNE 16:11:28 10° ENE daylight
28 Jan - 17:51:12 10° WNW 17:58:27 47° N 18:05:17 10° E daylight
28 Jan - 19:44:42 10° WNW 19:51:45 48° N 19:58:19 10° ENE visible
28 Jan - 21:38:49 10° WNW 21:44:45 29° NNW 21:50:20 10° NE visible
29 Jan - 14:58:27 10° NNW 15:04:12 22° NNE 15:09:50 10° ENE daylight
29 Jan - 16:50:07 10° NW 16:57:19 42° NNE 17:04:12 10° E daylight
29 Jan - 18:43:22 10° WNW 18:50:40 51° N 18:57:29 10° ENE daylight
29 Jan - 20:37:16 10° W 20:43:50 37° NNW 20:49:59 10° NE visible
29 Jan - 22:32:35 10° WNW 22:36:31 16° NNW 22:40:20 10° N visible
30 Jan - 13:58:40 10° N 14:03:11 16° NNE 14:07:41 10° ENE daylight
30 Jan - 15:49:12 10° NW 15:56:12 36° NNE 16:03:00 10° E daylight
30 Jan - 17:42:06 10° WNW 17:49:32 51° N 17:56:33 10° ENE daylight
30 Jan - 19:35:49 10° W 19:42:50 44° NNW 19:49:24 10° ENE visible
30 Jan - 21:30:22 10° WNW 21:35:43 23° NNW 21:40:49 10° NNE visible
31 Jan - 13:00:28 10° NNE 13:02:12 11° NNE 13:03:58 10° NE daylight
31 Jan - 14:48:32 10° NW 14:55:06 30° NNE 15:01:35 10° ENE daylight
31 Jan - 16:40:54 10° WNW 16:48:21 48° N 16:55:31 10° E daylight
31 Jan - 18:34:25 10° W 18:41:45 49° N 18:48:38 10° ENE daylight
31 Jan - 20:28:34 10° W 20:34:51 30° NNW 20:40:44 10° NE visible
31 Jan - 22:26:09 10° NW 22:27:26 11° NNW 22:28:42 10° NNW visible
01 Feb - 13:48:13 10° NNW 13:54:02 23° NNE 13:59:52 10° ENE daylight
01 Feb - 15:39:51 10° NW 15:47:11 43° NNE 15:54:20 10° E daylight
01 Feb - 17:33:05 10° WNW 17:40:36 52° N 17:47:45 10° ENE daylight
01 Feb - 19:27:00 10° W 19:33:52 38° NNW 19:40:20 10° NE daylight
01 Feb - 21:22:20 10° WNW 21:26:39 17° NNW 21:30:47 10° N visible
02 Feb - 12:48:30 10° N 12:53:02 17° NNE 12:57:38 10° ENE daylight
02 Feb - 14:38:59 10° NW 14:46:01 37° NNE 14:53:02 10° E daylight
02 Feb - 16:31:50 10° WNW 16:39:24 52° N 16:46:43 10° ENE daylight
02 Feb - 18:25:31 10° W 18:32:48 45° NNW 18:39:41 10° ENE daylight
02 Feb - 20:20:06 10° WNW 20:25:47 24° NNW 20:31:11 10° NNE visible
03 Feb - 11:50:24 10° NNE 11:52:06 11° NNE 11:53:49 10° NE daylight
03 Feb - 13:38:23 10° NW 13:44:55 30° NNE 13:51:32 10° E daylight
03 Feb - 15:30:41 10° WNW 15:38:11 49° N 15:45:35 10° E daylight
03 Feb - 17:24:08 10° W 17:31:39 50° N 17:38:51 10° ENE daylight
03 Feb - 19:18:18 10° W 19:24:50 31° NNW 19:31:03 10° NE daylight
03 Feb - 21:15:29 10° NW 21:17:30 11° NNW 21:19:29 10° NNW visible
